Wind_Speed
16 14 12 14 13 7 14 22 9 10 10 13 12 16 15 17 20 25 28 28 29 29 25 24 19 18 18 16 13 11 12 10 5 3 5 4 3 2 4 4 5 4 4
9 7 8 12 15 15 13 9 9 11 11 10 12 15 19 20 22 24 24 26 24 25 29 27 25 20 22 19 18 16 13 12 10 11 9 8 8 6 5 6 8 8 6
6 4 3 5 13 8 10 8 6 5 3 1 2 5 8 9 12 15 24 26 29 29 25 26 26 25 23 21 20 19 20 17 12 10 10 13 11 15 15 15 13 15 12
2 4 5 2 7 12 7 4 3 4 3 1 4 9 11 13 14 14 15 20 23 30 28 26 25 23 23 22 24 24 22 22 23 23 20 13 14 16 18 16 18 15 18
9 9 11 9 7 10 11 10 7 5 5 4 7 12 17 21 24 28 26 24 25 25 29 30 28 29 29 31 30 25 27 27 23 27 25 22 25 24 22 19 22 21 18
15 14 13 13 15 16 14 14 13 12 10 12 16 19 25 27 28 30 33 33 31 30 29 25 28 32 35 36 33 34 30 33 31 31 30 28 30 24 28 26 23 23 21
17 14 19 19 16 18 15 17 18 20 20 20 22 26 27 30 32 30 33 34 34 34 32 29 27 29 33 36 39 40 38 34 35 35 36 34 35 30 32 30 26 26 24
19 16 18 18 16 15 15 16 18 22 20 23 26 28 28 31 30 32 34 33 29 29 34 33 29 31 31 29 31 35 38 38 37 37 39 37 35 32 37 36 36 34 30
24 21 24 24 24 24 19 20 23 26 24 27 29 29 30 28 28 30 31 23 18 18 20 32 33 29 24 22 26 29 29 38 39 37 40 39 35 37 34 34 39 39 38
24 28 31 29 29 29 27 24 24 27 28 29 29 29 28 23 28 29 8 20 14 18 13 19 26 30 13 13 13 22 30 34 32 33 36 40 40 44 40 38 39 43 45
26 29 30 24 25 26 26 26 26 26 30 30 28 25 21 25 23 21 15 14 15 16 17 17 19 24 29 35 31 25 28 36 35 37 41 40 40 42 48 46 44 42 44
26 23 24 21 23 28 27 27 29 33 30 25 26 27 25 23 24 19 17 11 14 20 24 21 22 24 29 37 36 36 36 34 36 39 40 43 45 46 46 48 50 54 51
19 21 24 25 24 27 28 28 36 33 25 24 28 30 26 20 20 17 14 14 12 22 25 25 26 27 30 32 41 48 47 46 46 43 42 42 44 46 48 50 53 58 57
19 25 29 25 27 33 32 34 30 28 28 27 26 26 24 23 18 12 11 17 18 23 24 25 28 29 31 37 36 39 42 46 52 53 55 52 52 52 55 54 53 54 58
31 27 32 31 33 28 27 32 33 34 31 37 24 21 20 19 17 18 20 20 21 24 27 27 27 25 26 21 27 32 35 37 39 43 43 41 43 45 47 50 49 50 52
31 35 35 38 37 34 33 36 37 27 24 20 20 17 16 17 16 16 18 19 21 23 25 27 23 24 29 27 24 24 24 28 31 32 34 36 38 41 44 48 49 48 49
27 35 36 35 38 40 37 30 25 22 19 16 15 15 16 15 21 18 17 19 19 22 26 28 29 27 25 26 28 33 34 34 35 37 35 38 43 43 45 44 44 52 52
29 27 32 31 29 26 20 19 20 18 16 17 18 20 20 19 18 19 22 23 24 27 28 29 31 33 33 32 31 31 34 42 46 47 43 46 49 48 55 52 50 51 52
28 25 20 20 27 22 17 16 17 20 21 24 26 25 26 26 25 27 27 27 30 31 33 35 35 36 36 37 36 34 33 35 39 42 45 46 47 49 49 49 51 53 54
20 25 27 24 21 20 20 17 18 21 24 23 23 24 25 27 30 32 33 35 36 37 38 40 40 40 41 42 43 43 43 44 45 46 47 49 50 51 51 54 56 58 59
18 24 26 27 26 23 23 20 22 25 27 21 17 18 20 21 23 27 29 34 39 42 42 41 41 43 44 46 50 50 50 51 51 51 52 54 56 58 61 63 64 66 67
16 16 16 20 26 26 25 24 24 25 22 20 17 18 20 23 31 35 38 43 45 44 48 48 48 45 44 49 52 54 55 55 59 61 61 62 63 67 69 71 73 75 78
20 15 15 19 24 27 29 28 26 27 28 29 33 35 38 41 40 41 38 45 43 45 48 51 53 55 55 53 51 52 52 52 56 60 64 66 68 73 75 78 79 80 81
23 19 19 20 24 24 27 28 28 27 32 36 38 42 41 45 48 49 50 51 51 48 48 48 48 49 56 58 56 56 59 62 63 66 68 69 70 73 75 76 77 79 81
28 28 29 31 31 32 32 33 34 36 36 35 37 41 44 45 48 51 53 52 50 45 45 46 46 46 42 44 53 58 59 58 59 62 63 67 70 74 79 83 84 86 88
38 35 35 36 37 38 41 40 39 40 40 41 41 44 50 50 55 57 57 54 48 46 44 48 49 48 47 46 46 48 53 56 59 69 72 76 78 80 81 85 89 90 93
Wind_Direction
102 108 86 92 106 171 217 224 245 289 292 262 252 247 253 263 260 257 257 262 266 269 272 264 261 259 254 253 259 256 279 275 248 261 256 265 264 272 304 304 294 285 263
99 96 114 115 103 105 120 155 196 208 252 253 247 254 266 273 271 271 268 267 269 272 266 264 266 257 250 251 253 255 271 279 284 281 272 263 269 260 276 294 283 266 267
151 122 125 118 102 108 106 133 157 170 198 215 235 264 286 290 297 305 279 270 271 270 273 264 268 256 244 248 259 262 256 264 286 301 283 278 289 306 311 315 321 298 234
201 208 203 202 147 197 113 185 207 186 231 200 290 282 289 303 300 296 298 288 281 269 266 254 252 249 236 244 252 262 261 262 258 267 273 275 277 285 279 291 293 300 288
234 236 222 251 228 181 213 236 247 255 216 313 319 310 309 305 300 300 290 283 278 274 266 256 249 251 247 249 249 257 266 261 249 266 266 266 268 283 269 277 277 277 279
234 239 218 241 228 224 232 230 243 254 266 301 299 309 312 313 310 302 297 290 277 262 261 259 258 255 254 253 254 254 261 261 256 247 258 263 263 267 270 266 263 266 280
231 243 235 238 244 249 254 243 254 268 277 291 310 309 308 308 312 307 304 295 284 261 246 252 256 258 257 256 261 265 267 265 252 251 251 256 263 265 266 262 253 261 270
245 238 233 239 242 250 268 264 266 267 286 303 305 304 304 306 305 305 306 299 292 285 250 241 245 252 261 265 278 277 272 263 260 253 250 253 257 263 268 266 258 260 267
253 252 247 245 255 261 268 264 268 275 280 299 299 298 301 303 297 305 306 306 304 301 267 247 242 247 252 267 256 267 274 269 266 266 259 256 254 258 264 263 259 260 263
243 232 243 259 261 257 270 264 275 278 285 302 300 300 301 291 300 310 330 289 306 300 288 273 256 246 201 210 223 248 260 268 262 263 266 260 256 250 255 256 265 267 270
239 244 255 264 270 273 273 281 290 288 299 301 299 300 295 296 298 298 283 266 269 281 279 276 275 254 237 234 239 238 244 260 265 265 264 263 265 259 250 248 247 258 265
229 245 254 267 284 287 285 286 288 284 298 296 299 302 294 295 293 287 279 281 269 287 285 278 273 274 261 244 244 240 243 252 260 262 262 258 260 263 264 263 257 253 258
234 242 253 253 272 275 278 281 282 289 292 292 293 295 291 286 288 285 279 272 263 268 277 278 278 272 269 264 254 252 254 251 254 260 263 263 265 268 268 268 266 265 265
224 241 238 264 274 272 269 271 277 284 286 281 275 275 281 280 277 274 274 272 268 267 278 284 289 281 273 265 263 262 260 260 261 262 266 269 268 269 270 273 272 270 268
237 243 249 256 265 273 274 280 281 278 278 278 261 263 268 269 268 250 258 268 272 279 284 290 290 283 282 285 265 265 268 269 268 266 267 268 270 269 266 268 267 268 268
239 245 260 263 271 276 276 282 287 274 265 248 248 256 256 252 265 264 265 273 283 285 282 277 283 286 282 276 278 272 272 276 273 273 275 274 276 275 271 270 269 270 270
234 240 245 251 263 275 284 282 271 264 253 233 245 263 267 263 257 271 270 277 280 282 279 280 279 282 275 276 282 269 259 267 264 272 273 274 280 284 282 273 274 277 277
256 257 254 259 263 263 275 282 263 244 241 242 252 266 263 265 262 264 274 279 277 281 277 276 276 274 273 272 272 276 268 264 259 270 273 273 277 279 282 284 282 280 279
248 254 260 271 254 267 275 287 271 258 256 260 265 270 267 264 263 264 264 271 276 279 277 274 274 274 272 269 270 268 265 266 269 271 272 273 272 274 275 276 277 277 276
255 254 262 270 266 270 281 286 285 282 277 273 276 272 274 276 274 278 282 278 271 269 271 275 276 274 274 273 273 273 271 269 268 269 270 269 270 273 277 280 279 279 279
269 261 261 265 270 265 267 265 277 278 271 271 272 281 285 290 288 291 288 282 280 280 279 279 277 275 277 276 275 274 273 273 273 273 273 272 275 282 284 283 283 282 283
259 263 259 258 258 257 257 260 266 265 257 254 267 291 293 297 307 307 305 291 289 288 286 279 276 276 279 280 279 276 274 274 274 278 282 283 284 283 283 283 283 284 283
262 255 258 259 259 263 260 267 263 265 255 261 262 281 297 298 303 309 307 311 304 297 293 292 289 278 271 268 270 273 277 278 278 278 280 283 284 284 284 284 284 284 283
253 256 260 266 270 266 261 257 266 270 269 267 273 278 291 298 294 300 296 303 305 295 294 294 290 286 276 273 273 273 275 280 282 284 284 285 286 286 286 285 285 284 283
261 259 259 267 265 266 264 265 269 278 277 273 278 282 289 297 295 300 300 300 299 294 297 295 295 294 293 287 282 282 283 285 286 285 285 284 284 284 285 286 285 284 282
263 262 258 255 258 262 265 269 275 281 281 277 280 283 290 294 300 297 299 300 298 298 295 295 293 292 290 289 287 286 286 286 290 293 294 292 290 288 286 288 288 286 284
Height
10963 10967 10970 10969 10959 10955 10957 10965 10973 10972 10968 10971 10972 10975 10977 10980 10979 10979 10979 10979 10980 10980 10980 10980 10981 10982 10983 10983 10983 10983 10983 10984 10984 10984 10984 10985 10984 10983 10983 10983 10982 10982 10982
10967 10971 10972 10965 10956 10956 10960 10966 10969 10971 10970 10969 10970 10974 10976 10977 10978 10976 10976 10976 10975 10975 10975 10976 10976 10978 10979 10979 10980 10980 10980 10981 10982 10981 10982 10982 10983 10982 10982 10982 10982 10981 10981
10971 10973 10968 10962 10962 10962 10964 10967 10968 10970 10970 10969 10971 10974 10976 10976 10975 10974 10972 10972 10971 10971 10970 10970 10972 10972 10972 10975 10975 10976 10976 10979 10979 10979 10980 10981 10981 10983 10982 10981 10981 10980 10978
10970 10971 10966 10963 10967 10966 10968 10968 10968 10969 10968 10970 10973 10974 10974 10973 10972 10970 10968 10966 10966 10965 10965 10966 10967 10968 10969 10971 10971 10971 10972 10973 10974 10976 10977 10978 10978 10978 10977 10978 10978 10978 10978
10967 10969 10967 10964 10965 10968 10969 10969 10969 10969 10970 10971 10972 10971 10970 10968 10966 10964 10963 10962 10960 10960 10959 10960 10963 10965 10965 10965 10966 10967 10969 10969 10968 10969 10971 10972 10973 10974 10974 10973 10973 10975 10974
10963 10963 10965 10964 10965 10966 10966 10967 10968 10968 10967 10968 10967 10965 10964 10962 10960 10957 10954 10953 10952 10952 10952 10955 10956 10957 10959 10959 10960 10960 10962 10963 10963 10963 10964 10966 10966 10967 10969 10967 10968 10970 10969
10960 10961 10962 10963 10962 10962 10963 10963 10964 10963 10963 10962 10961 10960 10958 10957 10953 10949 10947 10945 10941 10942 10945 10948 10950 10951 10950 10952 10953 10954 10956 10955 10956 10957 10959 10960 10961 10960 10961 10962 10963 10963 10963
10957 10957 10958 10958 10959 10959 10959 10960 10960 10958 10957 10957 10955 10955 10953 10951 10947 10943 10941 10937 10935 10934 10937 10940 10943 10944 10945 10948 10950 10949 10948 10948 10948 10950 10951 10953 10955 10955 10954 10955 10956 10957 10956
10951 10952 10954 10954 10955 10955 10956 10956 10956 10955 10954 10952 10951 10950 10948 10945 10942 10940 10936 10933 10930 10929 10930 10934 10937 10939 10942 10945 10950 10943 10942 10940 10941 10941 10942 10945 10947 10949 10948 10946 10948 10948 10948
10944 10946 10948 10949 10950 10950 10951 10952 10951 10951 10950 10949 10947 10944 10942 10939 10937 10935 10936 10933 10929 10929 10927 10931 10930 10932 10936 10931 10927 10930 10934 10934 10933 10934 10935 10935 10937 10939 10940 10939 10939 10939 10940
10938 10941 10943 10944 10944 10945 10946 10947 10946 10945 10945 10943 10941 10939 10935 10933 10931 10929 10930 10927 10927 10925 10923 10925 10924 10925 10926 10923 10922 10923 10925 10926 10926 10926 10926 10927 10929 10929 10931 10932 10931 10930 10930
10932 10935 10937 10939 10939 10940 10940 10940 10939 10939 10938 10936 10933 10931 10930 10927 10924 10922 10922 10922 10920 10918 10917 10918 10919 10918 10919 10920 10919 10919 10919 10918 10918 10918 10917 10917 10918 10919 10919 10920 10920 10921 10920
10926 10930 10932 10933 10934 10934 10933 10933 10933 10931 10931 10930 10927 10925 10923 10922 10920 10918 10917 10916 10916 10913 10911 10912 10911 10911 10910 10910 10911 10911 10911 10910 10909 10909 10909 10908 10908 10909 10909 10909 10909 10908 10906
10921 10924 10926 10928 10928 10928 10927 10927 10926 10924 10924 10924 10922 10921 10918 10916 10914 10915 10914 10911 10910 10908 10908 10907 10905 10903 10900 10899 10899 10899 10899 10898 10898 10899 10897 10898 10899 10898 10898 10898 10897 10896 10895
10916 10918 10920 10922 10921 10920 10919 10919 10918 10917 10916 10917 10916 10915 10912 10911 10910 10908 10907 10906 10905 10903 10901 10899 10898 10896 10893 10890 10890 10891 10890 10889 10888 10888 10888 10888 10887 10887 10887 10885 10884 10883 10881
10912 10914 10914 10914 10914 10914 10913 10912 10910 10908 10908 10908 10910 10909 10908 10906 10905 10905 10904 10901 10899 10896 10895 10894 10892 10890 10888 10887 10886 10885 10883 10882 10880 10880 10879 10879 10877 10876 10875 10873 10872 10870 10868
10909 10909 10908 10908 10908 10907 10907 10906 10904 10903 10903 10903 10905 10905 10904 10903 10902 10902 10900 10897 10894 10892 10890 10888 10887 10884 10883 10881 10879 10878 10877 10875 10872 10872 10870 10869 10868 10866 10864 10862 10859 10857 10854
10904 10903 10902 10902 10902 10901 10901 10900 10899 10899 10899 10900 10900 10901 10900 10898 10897 10895 10895 10893 10891 10887 10885 10882 10880 10878 10876 10874 10872 10870 10867 10866 10865 10863 10861 10859 10857 10854 10852 10849 10846 10844 10841
10899 10898 10897 10897 10897 10897 10896 10896 10896 10896 10896 10896 10895 10894 10894 10893 10891 10888 10887 10886 10884 10881 10878 10876 10873 10871 10869 10867 10864 10862 10859 10857 10855 10852 10850 10847 10844 10841 10839 10836 10834 10830 10827
10893 10892 10891 10892 10892 10891 10891 10891 10892 10891 10891 10890 10890 10889 10888 10887 10884 10883 10880 10877 10874 10870 10868 10866 10864 10862 10859 10857 10855 10852 10850 10848 10845 10841 10838 10834 10831 10827 10826 10822 10819 10816 10812
10886 10886 10886 10887 10887 10886 10886 10886 10886 10885 10884 10883 10882 10882 10880 10879 10877 10875 10872 10868 10865 10862 10858 10855 10852 10850 10848 10846 10843 10840 10837 10834 10831 10828 10825 10821 10818 10814 10811 10806 10802 10799 10795
10880 10879 10879 10880 10880 10880 10880 10879 10878 10877 10877 10877 10875 10874 10873 10871 10870 10867 10864 10860 10855 10851 10847 10843 10839 10836 10833 10830 10827 10825 10822 10819 10815 10815 10811 10807 10802 10795 10792 10788 10784 10780 10774
10876 10874 10874 10874 10874 10874 10874 10873 10871 10871 10870 10870 10868 10866 10865 10861 10858 10856 10852 10849 10843 10838 10833 10829 10825 10822 10819 10815 10812 10808 10807 10805 10801 10798 10796 10792 10787 10776 10773 10767 10763 10756 10750
10870 10869 10869 10868 10869 10867 10866 10865 10865 10864 10863 10862 10861 10860 10856 10852 10850 10846 10841 10836 10832 10826 10820 10815 10811 10807 10804 10801 10798 10796 10795 10792 10787 10781 10778 10774 10768 10759 10750 10744 10740 10733 10726
10862 10862 10861 10861 10861 10861 10860 10859 10857 10856 10854 10852 10850 10848 10846 10843 10839 10834 10830 10823 10818 10814 10809 10805 10800 10794 10789 10785 10783 10780 10778 10775 10769 10761 10759 10753 10748 10740 10731 10721 10715 10708 10700
10852 10852 10852 10852 10852 10850 10850 10849 10847 10846 10843 10841 10838 10836 10835 10832 10826 10821 10817 10812 10807 10802 10798 10792 10787 10783 10778 10774 10771 10767 10762 10757 10753 10744 10739 10730 10724 10716 10711 10698 10685 10679 10668